Weather - Helsinki Query any day in the database

Current weather  

Weather data for a selected day (2006-01-01 -2020-10-30)
Enter date:     <-     scroll days         ->
day curves
Low temperature°C -18.006:50
High temperature°C -11.019:20
Low wind chill°C -25.106:50
Average temperature°C -13.9 
High wind speed (10 min) m/s 4.007:50
Low pressurehPa 1052.004:20
High pressurehPa 1055.021:20
Low R.H% 8400:50
High R.H% 9223:50
Day weather data as a table
Date Time Temp
°C
Chill
°C
Pressure
hPA
Wind
m/s
Hum
%
Precip
mm
2012-01-29 23:50:00 -14.0  -16.4  1054.0 1.0 92 -
2012-01-29 23:20:00 -14.0  -16.4  1054.0 1.0 92 -
2012-01-29 22:50:00 -14.0  -16.4  1054.0 1.0 92 -
2012-01-29 22:20:00 -13.0  -15.2  1054.0 1.0 84 -
2012-01-29 21:50:00 -13.0  -15.2  1054.0 1.0 92 -
2012-01-29 21:20:00 -12.0  -16.5  1055.0 2.0 85 -
2012-01-29 20:50:00 -12.0  -16.5  1055.0 2.0 92 -
2012-01-29 20:20:00 -12.0  -17.9  1055.0 3.0 92 -
2012-01-29 19:20:00 -11.0  -16.7  1055.0 3.0 92 -
2012-01-29 18:20:00 -11.0  -15.3  1055.0 2.0 92 -
2012-01-29 17:50:00 -12.0  -16.5  1055.0 2.0 92 -
2012-01-29 17:20:00 -12.0  -16.5  1055.0 2.0 92 -
2012-01-29 16:50:00 -12.0  -17.9  1055.0 3.0 85 -
2012-01-29 15:50:00 -13.0  -19.1  1055.0 3.0 84 -
2012-01-29 15:20:00 -13.0  -19.1  1054.0 3.0 84 -
2012-01-29 14:50:00 -12.0  -17.9  1054.0 3.0 92 -
2012-01-29 14:20:00 -12.0  -17.9  1054.0 3.0 85 -
2012-01-29 13:50:00 -11.0  -16.7  1054.0 3.0 85 -
2012-01-29 13:20:00 -12.0  -17.9  1054.0 3.0 92 -
2012-01-29 12:50:00 -12.0  -17.9  1054.0 3.0 85 -
2012-01-29 11:50:00 -13.0  -19.1  1054.0 3.0 92 -
2012-01-29 11:20:00 -13.0  -19.1  1054.0 3.0 84 -
2012-01-29 10:50:00 -14.0  -20.3  1054.0 3.0 92 -
2012-01-29 10:20:00 -15.0  -21.5  1054.0 3.0 92 -
2012-01-29 09:20:00 -17.0  -23.9  1053.0 3.0 91 -
2012-01-29 08:50:00 -17.0  -23.9  1053.0 3.0 84 -
2012-01-29 08:20:00 -17.0  -23.9  1053.0 3.0 84 -
2012-01-29 07:50:00 -16.0  -24.0  1053.0 4.0 84 -
2012-01-29 07:20:00 -16.0  -24.0  1053.0 4.0 84 -
2012-01-29 06:50:00 -18.0  -25.1  1053.0 3.0 84 -
2012-01-29 05:50:00 -17.0  -23.9  1053.0 3.0 84 -
2012-01-29 04:20:00 -16.0  -24.0  1052.0 4.0 84 -
2012-01-29 03:20:00 -15.0  -22.7  1052.0 4.0 84 -
2012-01-29 02:50:00 -17.0  -23.9  1052.0 3.0 84 -
2012-01-29 01:50:00 -14.0  -20.3  1052.0 3.0 92 -
2012-01-29 00:50:00 -16.0  -22.7  1052.0 3.0 84 -
2012-01-29 00:20:00 -16.0  -21.1  1052.0 2.0 91 -
Unit conversions: